User: anonymous   Login
Location: NJAA Observatory
(40.6819°N, 74.8979°W)
Time: 19:39:27
(UTC-05:00)
Language:

Iridium 4 - Orbit

View from above orbital plane
View from above orbital plane
View from above satellite
View from above satellite

Ground track
Ground track

The orbit data is extracted from the following two-line orbital elements,

1 24796U 97020E   16040.41495600  .00000272  00000-0  88458-4 0  9994
2 24796  86.4004 164.5798 0001985  95.1908 300.8885 14.35044721982492
Epoch (UTC): 09 February 2016 09:57:32
Eccentricity: 0.0001985
inclination: 86.4004°
perigee height: 773 km
apogee height: 776 km
right ascension of ascending node: 164.5798°
argument of perigee: 95.1908°
revolutions per day: 14.35044721
mean anomaly at epoch: 300.8885°
orbit number at epoch: 98249

The dashed part of the orbit path shows where the satellite is in the earth's shadow,  

DLR